STARLINK-31888, 59788

Orbit data source: Space-Track

STARLINK-31888, 59788 is a payload satellite owned by SpaceX/Seattle (US) in LEO that was launched on Sat, 18 May 2024 UTC via an FALCON 9 launch vehicle from the Air Force Eastern Test Range (AFETR). Payload-class satellites include a variety of spacecraft equipped with specific instruments for various scientific and technological missions. These include communications satellites like Starlink; space stations such as the ISS; scientific satellites like the Hubble; Earth observation satellites from companies like Planet Labs, Umbra, and HawkEye 360; GPS; miniature CubeSats for education and research; and military/defense satellites.

Loading next visibility...
Identifier
59788, 2024-093G
Orbit
LEO
Country
Flag of USUS
Related business
Manufacturer
SpaceX/Seattle
Mission
Operational Commercial Communications
Bus & Motor
STARLINK V2M, Unknown motor
Mass
730 kg wet, ~700 kg dry
Launch date (UTC)
2024-05-18 (2 years ago)
Launch vehicle
FALCON 9
Launch site
Air Force Eastern Test Range (AFETR)
Object type
Payload
Rocket body
Debris
Shape & HBR
Box + 2 Pan, 17.7 m
Radar Cross Section
33.884 m², Large (>1 m²)

Expand to show TLE details & history
Last TLE update: 17 hours ago

TLE from 17 hours ago
0 STARLINK-31888
1 59788U 24093G   25350.29145263  .00001116  00000-0  50114-4 0  9996
2 59788  43.0052 319.6356 0001054 284.8803  75.1932 15.27560685 89941
Epoch: 2025-12-16T06:59Z
TLE epoch observation values (Epoch: 2025-12-16T06:59:41.507Z)
Latitude
-0°
Longitude
129.53488°
Altitude
482.698 km
Speed
7.626 km/s
True Right ascension
21h 18m 32s
True Declination
0° 00' 00"
Sunlit
Object was in daylight at epoch
Visualization orbit readout
Latitude
Unknown
Longitude
Unknown
Altitude
Unknown
Speed
Unknown
Apparent Right ascension
Unknown
Apparent Declination
Unknown
Sunlit
N/A
Visualization observer readout
Local Sidereal Time
23:02:30
Azimuth
Unknown
Elevation
Unknown
Doppler factor
Unknown
Orbital elements
Apogee altitude
485.775 km
Perigee altitude
484.328 km
Semi-major axis
6,863.188 km
Eccentricity
0.00011
Inclination
43.0052°
RAAN
319.6356°
Arg. of periapsis
284.8803°
True anomaly
75.20488°
Mean anomaly
75.1932°
Eccentric anomaly
75.19904°
Mean motion
3.81728 °/min
Orbital period
94.31 mins
BSTAR
0.000050114
Loading maneuver chart data...
Computing Atmospheric mass density...
Loading historical data...
Loading historical data...
Loading historical data...
Loading historical data...
Loading historical data...
Loading historical data...
Loading historical data...

Documentation

Showing up to 5 results
|